Stornoway, United Kingdom

4:34 PM BST on September 18, 2018 (GMT +0100)
Stornoway

Weather History for EGPO - January, 2018

Change the Weather History Date:

Saturday, January 13, 2018

  Actual Average Record
Temperature  
Mean Temperature 45 °F -  
Max Temperature 46 °F 44 °F 51 °F (2003)
Min Temperature 44 °F 35 °F 28 °F (2012)
Degree Days  
Heating Degree Days 20    
Moisture  
Dew Point 39 °F    
Average Humidity 76    
Maximum Humidity 93    
Minimum Humidity 53    
Precipitation  
Precipitation 0.12 in 0.14 in - ()
Sea Level Pressure  
Sea Level Pressure 29.82 in    
Wind  
Wind Speed 21 mph ()    
Max Wind Speed 33 mph    
Max Gust Speed 44 mph    
Visibility 7.6 miles    
Events Rain    
Averages and records for this station are not official NWS values.
T = Trace of Precipitation, MM = Missing Value Source: Averaged Metar Reports

Daily Weather History Graph

Daily Weather History Graph

Search for Another Location

Airport or City:

Astronomy

Jan. 13, 2018 Rise Set
Actual Time 9:02 AM GMT 4:05 PM GMT
Civil Twilight 8:13 AM GMT 4:54 PM GMT
Nautical Twilight 7:22 AM GMT 5:45 PM GMT
Astronomical Twilight 6:34 AM GMT 6:33 PM GMT
Moon 5:38 AM GMT (1/13) 1:43 PM GMT (1/13)
Length of Visible Light 8h 41m
Length of Day
7h 02m
Waning Crescent, 11% of the Moon is Illuminated
Jan 13
Waning Crescent
Jan 17
New
Jan 24
First Quarter
Jan 31
Full
Feb 7
Last Quarter

Hourly Weather History & Observations

Time (GMT) Temp. Windchill Dew Point Humidity Pressure Visibility Wind Dir Wind Speed Gust Speed Precip Events Conditions
12:00 AM 47 °F - 35 °F 53% 29.88 in 25 mi SSE 23.0 mph - -   Mostly Cloudy
12:20 AM 48.2 °F - 35.6 °F 62% 29.89 in 6.2 mi SSE 19.6 mph - N/A   Unknown
12:50 AM 46.4 °F 38.5 °F 35.6 °F 66% 29.89 in 6.2 mi South 21.9 mph - N/A   Mostly Cloudy
1:00 AM 47 °F - 36 °F 56% 29.88 in 25 mi SSE 21.9 mph - -   Partly Cloudy
1:20 AM 46.4 °F 38.1 °F 33.8 °F 62% 29.89 in 6.2 mi South 24.2 mph - N/A   Mostly Cloudy
1:50 AM 46.4 °F 37.9 °F 33.8 °F 62% 29.86 in 6.2 mi South 25.3 mph - N/A   Overcast
2:00 AM 47 °F - 36 °F 56% 29.88 in 16 mi South 21.9 mph - - Rain Rain
2:20 AM 46.4 °F 38.3 °F 35.6 °F 66% 29.86 in 6.2 mi SSE 23.0 mph - N/A   Overcast
2:50 AM 44.6 °F 35.9 °F 37.4 °F 76% 29.86 in 6.2 mi South 23.0 mph - N/A Rain Light Rain
3:00 AM 45 °F - 36 °F 62% 29.88 in 10 mi South 23.0 mph - - Rain Light Rain Showers
3:20 AM 46.4 °F 38.3 °F 35.6 °F 66% 29.86 in 6.2 mi South 23.0 mph - N/A Rain Light Rain
3:50 AM 44.6 °F 35.3 °F 37.4 °F 76% 29.86 in 6.2 mi SSE 26.5 mph - N/A Rain Light Rain
4:00 AM 45 °F - 38 °F 67% 29.87 in 8 mi SSE 24.2 mph - - Rain Light Rain
4:20 AM 44.6 °F 36.1 °F 37.4 °F 76% 29.86 in 6.2 mi South 21.9 mph - N/A Rain Light Rain
4:50 AM 44.6 °F 35.9 °F 37.4 °F 76% 29.86 in 6.2 mi SSE 23.0 mph - N/A Rain Light Rain
5:00 AM 45 °F - 39 °F 71% 29.86 in 9 mi SSE 20.7 mph - - Rain Light Rain
5:20 AM 44.6 °F 36.4 °F 39.2 °F 81% 29.86 in 5.0 mi SSE 20.7 mph - N/A Rain Light Rain
5:50 AM 44.6 °F 35.9 °F 39.2 °F 81% 29.86 in 4.3 mi SSE 23.0 mph - N/A Rain Light Rain
6:00 AM 45 °F - 40 °F 75% 29.85 in 6 mi SSE 23.0 mph - - Rain Rain
6:20 AM 44.6 °F 36.1 °F 39.2 °F 81% 29.86 in 6.2 mi SSE 21.9 mph - N/A Rain Light Rain
6:50 AM 44.6 °F 36.4 °F 39.2 °F 81% 29.83 in 6.2 mi SSE 20.7 mph - N/A Rain Light Rain
7:00 AM 45 °F - 39 °F 74% 29.83 in 11 mi SSE 21.9 mph - - Rain Light Rain
7:20 AM 44.6 °F 37.4 °F 39.2 °F 81% 29.83 in 6.2 mi SE 16.1 mph - N/A Rain Light Rain
7:50 AM 44.6 °F 37.2 °F 39.2 °F 81% 29.83 in 6.2 mi SE 17.3 mph - N/A Rain Light Rain
8:00 AM 44 °F - 39 °F 76% 29.84 in 11 mi SE 15.0 mph - - Rain Light Rain
8:20 AM 44.6 °F 36.9 °F 39.2 °F 81% 29.83 in 6.2 mi SE 18.4 mph - N/A Rain Light Rain
8:50 AM 44.6 °F 37.2 °F 39.2 °F 81% 29.83 in 6.2 mi SSE 17.3 mph - N/A Rain Light Rain
9:00 AM 45 °F - 40 °F 77% 29.84 in 7 mi SE 20.7 mph - - Rain Light Rain
9:20 AM 44.6 °F 35.9 °F 39.2 °F 81% 29.83 in 6.2 mi SSE 23.0 mph - N/A Rain Light Rain
9:50 AM 46.4 °F 39.2 °F 39.2 °F 76% 29.83 in 6.2 mi SSE 18.4 mph - N/A Rain Light Rain
10:00 AM 45 °F - 40 °F 78% 29.85 in 9 mi SSE 17.3 mph - - Rain Light Rain
10:20 AM 44.6 °F 36.9 °F 39.2 °F 81% 29.83 in 6.2 mi SE 18.4 mph - N/A Rain Light Rain
10:50 AM 44.6 °F 36.6 °F 39.2 °F 81% 29.83 in 6.2 mi SE 19.6 mph - N/A Rain Light Rain
11:00 AM 45 °F - 38 °F 70% 29.85 in 11 mi SE 18.4 mph - - Rain Light Rain
11:20 AM 44.6 °F 36.9 °F 37.4 °F 76% 29.83 in 6.2 mi SE 18.4 mph - N/A Rain Light Rain
11:50 AM 44.6 °F 36.6 °F 39.2 °F 81% 29.83 in 6.2 mi SE 19.6 mph - N/A Rain Light Rain
12:00 PM 45 °F - 39 °F 73% 29.84 in 9 mi SE 19.6 mph - - Rain Light Rain
12:20 PM 44.6 °F 35.9 °F 37.4 °F 76% 29.83 in 6.2 mi SSE 23.0 mph - N/A Rain Light Rain
12:50 PM 44.6 °F 36.1 °F 37.4 °F 76% 29.83 in 6.2 mi SSE 21.9 mph - N/A Rain Light Rain
1:00 PM 45 °F - 38 °F 67% 29.83 in 13 mi SSE 20.7 mph - - Rain Light Rain
1:20 PM 44.6 °F 36.4 °F 37.4 °F 76% 29.80 in 6.2 mi SSE 20.7 mph - N/A Rain Light Rain
1:50 PM 44.6 °F 36.4 °F 37.4 °F 76% 29.80 in 6.2 mi SSE 20.7 mph - N/A Rain Light Rain
2:00 PM 45 °F - 38 °F 69% 29.81 in 8 mi SSE 21.9 mph - - Rain Light Rain
2:20 PM 44.6 °F 36.6 °F 37.4 °F 76% 29.80 in 6.2 mi SSE 19.6 mph - N/A Rain Light Rain
2:50 PM 44.6 °F 36.4 °F 39.2 °F 81% 29.80 in 6.2 mi South 20.7 mph - N/A Rain Light Rain
3:00 PM 45 °F - 39 °F 73% 29.80 in 9 mi SSE 21.9 mph - - Rain Light Rain
3:20 PM 44.6 °F 36.4 °F 39.2 °F 81% 29.80 in 6.2 mi SSE 20.7 mph - N/A Rain Light Rain
3:50 PM 44.6 °F 36.4 °F 39.2 °F 81% 29.80 in 6.2 mi SSE 20.7 mph - N/A   Overcast
4:00 PM 45 °F - 40 °F 76% 29.80 in 11 mi SSE 20.7 mph - - Rain Rain
4:20 PM 44.6 °F 35.9 °F 39.2 °F 81% 29.77 in 6.2 mi South 23.0 mph - N/A   Overcast
4:50 PM 46.4 °F 37.7 °F 39.2 °F 76% 29.77 in 6.2 mi South 26.5 mph - N/A   Overcast
5:20 PM 46.4 °F 37.9 °F 39.2 °F 76% 29.77 in 6.2 mi South 25.3 mph - N/A   Overcast
5:50 PM 46.4 °F 37.5 °F 39.2 °F 76% 29.77 in 6.2 mi South 27.6 mph - N/A   Overcast
6:00 PM 46 °F - 40 °F 74% 29.79 in 19 mi South 24.2 mph - -   Overcast
6:20 PM 46.4 °F 37.9 °F 41.0 °F 81% 29.77 in 6.2 mi South 25.3 mph - N/A   Overcast
6:50 PM 46.4 °F 38.1 °F 41.0 °F 81% 29.77 in 6.2 mi South 24.2 mph - N/A   Overcast
7:00 PM 46 °F - 40 °F 74% 29.79 in 17 mi South 23.0 mph - -   Overcast
7:20 PM 46.4 °F 37.9 °F 41.0 °F 81% 29.77 in 6.2 mi South 25.3 mph 39.1 mph N/A   Mostly Cloudy
7:50 PM 46.4 °F 37.9 °F 41.0 °F 81% 29.77 in 6.2 mi South 25.3 mph - N/A   Mostly Cloudy
8:00 PM 46 °F - 41 °F 78% 29.78 in 16 mi South 27.6 mph - -   Mostly Cloudy
8:20 PM 46.4 °F 38.1 °F 42.8 °F 87% 29.77 in 6.2 mi South 24.2 mph - N/A   Mostly Cloudy
8:50 PM 46.4 °F 37.7 °F 42.8 °F 87% 29.77 in 6.2 mi South 26.5 mph 39.1 mph N/A Rain Light Rain
9:00 PM 46 °F - 42 °F 83% 29.78 in 11 mi South 26.5 mph - -   Mostly Cloudy
9:20 PM 46.4 °F 37.2 °F 42.8 °F 87% 29.77 in 6.2 mi South 29.9 mph 42.6 mph N/A Rain Light Rain
9:50 PM 46.4 °F 36.7 °F 42.8 °F 87% 29.77 in 6.2 mi South 33.4 mph - N/A Rain Light Rain
10:00 PM 46 °F - 42 °F 83% 29.77 in 12 mi South 31.1 mph - -   Mostly Cloudy
10:20 PM 46.4 °F 36.9 °F 42.8 °F 87% 29.77 in 6.2 mi South 32.2 mph - N/A   Overcast
10:50 PM 46.4 °F 36.7 °F 42.8 °F 87% 29.77 in 6.2 mi South 33.4 mph - N/A Rain Light Rain
11:00 PM 46 °F - 43 °F 87% 29.77 in 7 mi South 33.4 mph - -   Light Haze
11:20 PM 46.4 °F 36.9 °F 44.6 °F 93% 29.77 in 6.2 mi South 32.2 mph 43.7 mph N/A Rain Light Rain
11:50 PM 46.4 °F 37.0 °F 44.6 °F 93% 29.77 in 6.2 mi South 31.1 mph - N/A   Overcast